Regional Weather Roundup
Issued by NWS Jackson, KY

Home | Current Version | Previous Version | Text Only | Print | Product List | Glossary Off
Versions: 1 2 3 4 5 6 7 8 9 10 11 12 13 14 15 16 17 18 19 20 21 22 23 24 25 26 27 28 29 30 31 32 33 34 35 36 37 38 39 40 41 42 43 44 45 46 47 48 49 50

000
ASUS43 KJKL 050010
RWRJKL

EAST KENTUCKY HOURLY WEATHER ROUNDUP
NATIONAL WEATHER SERVICE JACKSON KY
800 PM EDT TUE AUG 04 2015

NOTE: "FAIR" INDICATES FEW OR NO CLOUDS BELOW 12,000 FEET WITH
NO SIGNIFICANT WEATHER AND/OR OBSTRUCTIONS TO VISIBILITY.

* THESE REPORTS ARE NOT UNDER NWS QUALITY CONTROL AND MAY NOT
  REPORT WEATHER SUCH AS PRECIPITATION AND FOG.

KYZ079-080-083-085-087-088-110-112-115-119-120-050100
...EASTERN KENTUCKY...

CITY           SKY/WX    TMP DP  RH WIND       PRES   REMARKS
JACKSON        CLOUDY    68  67  96 VRB5      30.07S FOG
6HR MIN TEMP:  68; 6HR MAX TEMP:  84; 6HR PCP:  0.45;

LONDON         CLOUDY    75  64  68 CALM      30.05R
6HR MIN TEMP:  74; 6HR MAX TEMP:  92; 6HR PCP:  0.02;

SOMERSET*      MOCLDY    70  68  94 S3        30.04F
MONTICELLO*    CLOUDY    74  73  96 CALM      30.05R
6HR MIN TEMP:  74; 6HR MAX TEMP:  92; 6HR PCP:  0.04;

MIDDLESBORO*   CLOUDY    77  67  70 CALM      30.05R
6HR MIN TEMP:  77; 6HR MAX TEMP:  92;

HAZARD APT*    RAIN      70  70 100 CALM      30.07R
PIKEVILLE APT* LGT RAIN  70  68  94 CALM      30.06R
BIG SANDY*     CLOUDY    72  70  94 S5        30.02S
6HR MIN TEMP:  72; 6HR MAX TEMP:  85;

MOREHEAD APT*  MOCLDY    81  70  69 CALM      30.03R
$$

KYZ035-036-041-042-044-050-067-078-099-050100
...CENTRAL KENTUCKY...

CITY           SKY/WX    TMP DP  RH WIND       PRES   REMARKS
MT STERLING*   HVY RAIN  70  70 100 SW9       30.03R VSB 3/4
FLEMING/MASON* MOCLDY    79  68  69 N3        30.01R
DANVILLE*      LGT RAIN  70  68  94 CALM      30.04
RICHMOND*      CLOUDY    70  66  88 SE3       30.01
LEXINGTON      MOCLDY    75  68  78 S7        30.01S
6HR MIN TEMP:  75; 6HR MAX TEMP:  88;

FRANKFORT      CLOUDY    78  69  73 S8        30.00R
6HR MIN TEMP:  78; 6HR MAX TEMP:  87;

$$

KYZ091>093-OHZ055-061-077-WVZ005-015-034-035-042-050100
...SOUTHERN OHIO/WEST VIRGINIA...

CITY           SKY/WX    TMP DP  RH WIND       PRES   REMARKS
COVINGTON      MOCLDY    78  62  57 N5        29.98F
COLUMBUS       MOCLDY    77  53  43 NW9       29.96R
DAYTON         MOCLDY    75  58  55 W7        30.00R
WILMINGTON     MOCLDY    77  57  50 W9        29.99R
HUNTINGTON     MOCLDY    78  70  76 CALM      29.98R
CHARLESTON     MOCLDY    81  69  67 W7        29.97R
PINEVILLE*     PTCLDY    71  70  96 MISG      30.10R
BECKLEY        MOCLDY    76  65  68 W8        30.08R
BLUEFIELD      MOCLDY    72  63  73 W5        30.12R
$$

VAZ002-007-008-TNZ017-027-036-066-071-050100
...SOUTHWEST VIRGINIA/EAST TENNESSEE...

CITY           SKY/WX    TMP DP  RH WIND       PRES   REMARKS
WISE*          DRIZZLE   72  59  64 SW6       30.14R
ABINGDON*      CLOUDY    76  66  72 W5        30.09R
BRISTOL        CLOUDY    70  67  90 NE3       30.05F
KNOXVILLE      MOCLDY    89  67  47 SW6       29.99R HX  92
OAK RIDGE      PTCLDY    91  69  48 CALM      30.01R HX  96
CROSSVILLE     MOCLDY    81  69  67 CALM      30.07R
NASHVILLE      MOCLDY    91  63  39 NW6       29.98R HX  92
$$

...KEY TO REMARKS...
VSB - VISIBILITY IN MILES
WCI - WIND CHILL INDEX
HX  - HEAT INDEX

$$


USA.gov is the U.S. government's official web portal to all federal, state and local government web resources and services.